"Pseudo-MPEC" for P11BXOT

Created 2022 Nov 30 15:22:24 UT using Find_Orb

Click here for an explanation of pseudo-MPECs

 
 Astrometry: 
     P11BXOT* C2022 11 23J0c$\0$imChcQ/AstrometrypUApDjFoL=T\aMRrQ5USE4B810bsF51
     P11BXOT  C2022 11 23Lqo(h9r4cD,qZredacted;GEclickg?v)T,\@XlQBHmtdeV,$OuAF51
     P11BXOT  C2022 11 23M[m.(8OHhXVto0n'WyJ%F@Te+0qc9F_g'RO0D$X26ha_SUg0/7iUF51
     P11BXOT  C2022 11 231Ctp.lY!8rBtJq*nO[@*B%]Qlm`here]7pHZjB6RD)J@#u8-CAI$F51
     P11BXOT  C2022 11 23a-AER3llK)sa8`Qj^4n%7Cqxgl!E.cFO.RxA*o;HV-baQGvEgiQfF51
     P11BXOT |C2022 11 240wAU+*U48a+9`LwUAEe(aLYbHYh6sV2qwAV\QkN8PARax=L%S:g!807
     P11BXOT |C2022 11 24M0k)]GoTyje[A0/4for`Q@Iexplanation(:g.uF;i3qwby[dni=807
     P11BXOT |C2022 11 24^TRZd;n$FhApp[7Y0]NyJEo.n]Lbi!5u[S6OX]=y-h4D!E'OD+On807
     P11BXOT KC2022 11 25.38115205 50 01.930-07 36 32.70   ~BP9b 21.98GVNEOCPI52
     P11BXOT KC2022 11 26-]bDc%%,:';G=j%TaXa)m+^lfhjr=^YT!$=Z)#:w*UD!yJ0:\qDOH21
     P11BXOT KC2022 11 26W\uCJfoAJOu%-l_joygST1/-5?HrjF!G(wk-=:NACJGPp,@f`asnH21
     P11BXOT  C2022 11 28.42243605 41 34.480-06 15 36.53   ~BSAq 21.0 GVNEOCPH01
     P11BXOT  C2022 11 28.42526905 41 33.992-06 15 31.98   ~BSAq 21.2 GVNEOCPH01
     P11BXOT  C2022 11 28.43823305 41 31.795-06 15 11.04   ~BSAq 20.8 GVNEOCPH01
     P11BXOT  C2022 11 28.44273105 41 31.033-06 15 03.59   ~BSAq 21.1 GVNEOCPH01

Station data:
(807) Cerro Tololo Observatory, La Serena  (S30.169133 W70.805900)  Chile.
   Observer R. Holmes. 0.61-m f/6.5 astrograph + CCD.
(F51) Pan-STARRS 1, Haleakala  (N20.707234 W156.255910)  US/Hawaii.
   Observers J. Bulger, T. Lowe, A. Schultz, M. Willman. Measurers K.
   Chambers, S. Chastel, T. de Boer, L. Denneau, J. Fairlamb, H. Flewelling,
   M. Huber, C.-C. Lin, E. Magnier, Y. Ramanjooloo, R. Wainscoat, R. Weryk.
   1.8-m Ritchey-Chrétien + CCD.
(H01) Magdalena Ridge Observatory, Socorro  (N33.984833 W107.189333)  US/New
   Mexico.  Observers W. H. Ryan, E. V. Ryan. Measurer W. H. Ryan. 2.4-m
   f/8.9 reflector + CCD.
(H21) Astronomical Research Observatory, Westfield  (N39.483054 W87.968270)
   US/Illinois.  Observer R. Holmes. Measurers S. Foglia, L. Buzzi, T.
   Linder, R. Holmes. 0.76-m f/3.0 astrograph + CCD0.81-m f/4.0 astrograph +
   CCD0.61-m f/4.5 astrograph + CCD0.40-m f/5.32 astrograph + CCD.
(I52) Steward Observatory, Mt. Lemmon Station  (N32.442544 W110.788920)
   US/Arizona.  Observers T. A. Pruyne, B. M. Africano, E. J. Christensen, G.
   A. Farneth, D. C. Fuls, A. R. Gibbs, A. D. Grauer, H. Gröller, J. A.
   Johnson, R. A. Kowalski, S. M. Larson, G. J. Leonard, D. Rankin, R. L.
   Seaman, F. C. Shelly, K. W. Wierzchoś. 1.0-m reflector + CCD.

Orbital elements:  P11BXOT
   Perihelion 2022 Aug 16.28522 +/- 0.276 TT =  6:50:43 (JD 2459807.78522)
Epoch 2022 Nov 28.0 TT = JDT 2459911.5   Earth MOID: 0.1694   Ve: 0.0621
M  31.35069524 +/- 0.49             (J2000 ecliptic)          AutoNEOCP
n   0.30227798 +/- 0.00552          Peri.  220.87446 +/- 0.19
a   2.19886398 +/- 0.0268           Node    98.07633 +/- 0.34
e   0.6663499 +/- 0.00479           Incl.   27.47489 +/- 0.51
P   3.26                   H 20.5   G  0.15   U  9.3
q 0.73365098 +/- 0.0016    Q 3.66407697 +/- 0.0551
From 15 observations 2022 Nov. 23-28; mean residual 0".20
Residuals in arcseconds: 
221123 F51  .24-  .07+    221124 807  .22+  .14-    221126 H21  .11-  .08-    
221123 F51  .03+  .01-    221124 807  .23+  .11-    221128 H01  .16+  .08+    
221123 F51  .21-  .01+    221124 807  .23+  .19-    221128 H01  .05+  .04+    
221123 F51  .06-  .21+    221125 I52  .32+  .34+    221128 H01  .05+  .07-    
221123 F51  .11-  .04+    221126 H21  .68-  .25-    221128 H01  .04+  .08+    

Ephemerides (geocentric):
Date (UTC) HH   RA             Dec           delta  r     elong  mag " sig PA
---- --------  ------------   ------------  ------ ------ -----  --- --------
2022 11 30 15  05 35 32.596   -05 15 32.82  .71314 1.6355 148.0 21.8 0.99  41
2022 11 30 16  05 35 25.804   -05 14 24.31  .71336 1.6359 148.1 21.8 1.01  41
2022 11 30 17  05 35 19.015   -05 13 15.79  .71358 1.6363 148.1 21.8 1.03  41
2022 11 30 18  05 35 12.228   -05 12 07.25  .71381 1.6367 148.2 21.8 1.06  42
2022 11 30 19  05 35 05.443   -05 10 58.70  .71403 1.6371 148.2 21.8 1.08  42
2022 11 30 20  05 34 58.661   -05 09 50.13  .71426 1.6375 148.3 21.8 1.10  42
2022 11 30 21  05 34 51.882   -05 08 41.55  .71448 1.6379 148.3 21.8 1.12  42
2022 11 30 22  05 34 45.105   -05 07 32.95  .71471 1.6383 148.4 21.8 1.14  42
2022 11 30 23  05 34 38.331   -05 06 24.34  .71493 1.6387 148.4 21.8 1.16  42
2022 12 01 00  05 34 31.559   -05 05 15.72  .71516 1.6391 148.5 21.8 1.18  43
2022 12 01 01  05 34 24.790   -05 04 07.08  .71539 1.6395 148.5 21.8 1.21  43
2022 12 01 02  05 34 18.024   -05 02 58.42  .71562 1.6399 148.6 21.8 1.23  43
2022 12 01 03  05 34 11.260   -05 01 49.75  .71585 1.6403 148.6 21.8 1.25  43
2022 12 01 04  05 34 04.499   -05 00 41.07  .71608 1.6407 148.7 21.8 1.27  43
2022 12 01 05  05 33 57.740   -04 59 32.38  .71631 1.6411 148.7 21.8 1.30  43
2022 12 01 06  05 33 50.984   -04 58 23.67  .71654 1.6415 148.8 21.8 1.32  43
2022 12 01 07  05 33 44.231   -04 57 14.95  .71677 1.6419 148.8 21.8 1.34  44
2022 12 01 08  05 33 37.481   -04 56 06.21  .71700 1.6423 148.9 21.8 1.37  44
2022 12 01 09  05 33 30.733   -04 54 57.46  .71723 1.6427 148.9 21.8 1.39  44
2022 12 01 10  05 33 23.988   -04 53 48.70  .71746 1.6431 149.0 21.8 1.41  44
2022 12 01 11  05 33 17.246   -04 52 39.93  .71770 1.6435 149.0 21.8 1.44  44
2022 12 01 12  05 33 10.507   -04 51 31.14  .71793 1.6439 149.1 21.8 1.46  44
2022 12 01 13  05 33 03.770   -04 50 22.34  .71816 1.6443 149.1 21.8 1.49  44
2022 12 01 14  05 32 57.036   -04 49 13.53  .71840 1.6447 149.2 21.8 1.51  45
2022 12 01 15  05 32 50.305   -04 48 04.71  .71863 1.6451 149.2 21.8 1.54  45
2022 12 01 16  05 32 43.577   -04 46 55.87  .71887 1.6455 149.3 21.8 1.56  45
2022 12 01 17  05 32 36.852   -04 45 47.02  .71911 1.6459 149.3 21.8 1.59  45
2022 12 01 18  05 32 30.129   -04 44 38.16  .71934 1.6463 149.3 21.8 1.61  45
2022 12 01 19  05 32 23.410   -04 43 29.29  .71958 1.6467 149.4 21.8 1.64  45
2022 12 01 20  05 32 16.693   -04 42 20.41  .71982 1.6471 149.4 21.8 1.66  45
2022 12 01 21  05 32 09.979   -04 41 11.52  .72006 1.6475 149.5 21.8 1.69  45
2022 12 01 22  05 32 03.268   -04 40 02.61  .72029 1.6479 149.5 21.8 1.72  46
2022 12 01 23  05 31 56.560   -04 38 53.69  .72053 1.6483 149.6 21.8 1.74  46
2022 12 02 00  05 31 49.855   -04 37 44.77  .72077 1.6487 149.6 21.8 1.77  46
2022 12 02 01  05 31 43.153   -04 36 35.83  .72101 1.6490 149.7 21.8 1.80  46
2022 12 02 02  05 31 36.454   -04 35 26.88  .72125 1.6494 149.7 21.8 1.83  46
2022 12 02 03  05 31 29.758   -04 34 17.92  .72150 1.6498 149.8 21.8 1.85  46
2022 12 02 04  05 31 23.064   -04 33 08.95  .72174 1.6502 149.8 21.8 1.88  46
2022 12 02 05  05 31 16.374   -04 31 59.97  .72198 1.6506 149.9 21.8 1.91  46
2022 12 02 06  05 31 09.687   -04 30 50.98  .72222 1.6510 149.9 21.8 1.94  47
2022 12 02 07  05 31 03.003   -04 29 41.98  .72247 1.6514 149.9 21.8 1.97  47
2022 12 02 08  05 30 56.322   -04 28 32.97  .72271 1.6518 150.0 21.8 2.00  47
2022 12 02 09  05 30 49.644   -04 27 23.95  .72295 1.6522 150.0 21.8 2.02  47
2022 12 02 10  05 30 42.969   -04 26 14.92  .72320 1.6526 150.1 21.8 2.05  47
2022 12 02 11  05 30 36.297   -04 25 05.88  .72345 1.6530 150.1 21.8 2.08  47
2022 12 02 12  05 30 29.628   -04 23 56.84  .72369 1.6534 150.2 21.8 2.11  47
2022 12 02 13  05 30 22.963   -04 22 47.78  .72394 1.6538 150.2 21.8 2.14  47
2022 12 02 14  05 30 16.300   -04 21 38.72  .72419 1.6542 150.3 21.8 2.17  48